Location: Krishnamma Banjar
(17.2175°N, 80.5166°E)
Time: 04:06:21
(UTC+00:00)

H-2A R/B - Pass Details

Date: 03 August 2024
Orbit: 731 x 832 km, 98.2° (Epoch: 10 September)

Event Time Altitude Azimuth Distance (km) Brightness Sun altitude
Rises 22:25:28 0° 16° (NNE) 3,170 5.8 -25.6°
Reaches altitude 10° 22:27:45 10° 18° (NNE) 2,257 5.0 -25.1°
Maximum altitude 22:32:41 68° 102° (ESE) 812 2.2 -24.1°
Enters shadow 22:34:55 33° 175° (S) 1,260 2.9 -23.6°
